South Paris, Maine, United States (04281)
Lat: 44.22N, Lon: 70.51W
Wx Zone: MEZ012
Local Info
Past Weather Observations for Tuesday, April 26, 2016

NOTE: This archive is for the closest National Weather Service station to South Paris. Information may differ from the station used for current weather conditions.

Click here for Long-term Archive

Time Weather Temperature Dewpoint Humidity Pressure Winds Precip Visibility
23:55
Clear
30°F / -1°C 27°F / -3°C 86% 29.83 in
(1010 mb)
Calm - 10SM
23:35
Clear
27°F / -3°C 25°F / -4°C 93% 29.83 in
(1010 mb)
SSW 3.5 mph
(SSW 6 kph)
- 1 1/4SM
23:15
Clear
28°F / -2°C 27°F / -3°C 93% 29.83 in
(1010 mb)
Calm - 1 1/2SM
22:55
Clear
30°F / -1°C 28°F / -2°C 93% 29.83 in
(1010 mb)
Calm - 10SM
22:35
Clear
30°F / -1°C 27°F / -3°C 86% 29.8 in
(1009 mb)
Calm - 1 3/4SM
22:15
Clear
30°F / -1°C 27°F / -3°C 86% 29.8 in
(1009 mb)
Calm - 10SM
21:55
Obscured
28°F / -2°C 25°F / -4°C 86% 29.8 in
(1009 mb)
Calm - 3/4SM
21:35
Clear
30°F / -1°C 27°F / -3°C 86% 29.8 in
(1009 mb)
Calm - 10SM
21:15
Mostly Cloudy
28°F / -2°C 27°F / -3°C 93% 29.8 in
(1009 mb)
SSE 3.5 mph
(SSE 6 kph)
- 3/4SM
20:55
Clear
32°F / 0°C 28°F / -2°C 87% 29.8 in
(1009 mb)
Calm - 10SM
20:35
Clear
30°F / -1°C 28°F / -2°C 93% 29.8 in
(1009 mb)
S 3.5 mph
(S 6 kph)
- 10SM
20:15
Obscured
30°F / -1°C 27°F / -3°C 86% 29.8 in
(1009 mb)
Calm - 3/4SM
19:55
Clear
34°F / 1°C 28°F / -2°C 81% 29.8 in
(1009 mb)
Calm - 10SM
19:35
Clear
32°F / 0°C 28°F / -2°C 87% 29.8 in
(1009 mb)
Calm - 10SM
19:15
Clear
34°F / 1°C 28°F / -2°C 81% 29.8 in
(1009 mb)
S 4.6 mph
(S 7 kph)
- 10SM
18:55
Clear
34°F / 1°C 28°F / -2°C 81% 29.8 in
(1009 mb)
SSE 5.8 mph
(SSE 9 kph)
- 10SM
18:35
Clear
34°F / 1°C 28°F / -2°C 81% 29.8 in
(1009 mb)
SSE 3.5 mph
(SSE 6 kph)
- 10SM
18:15
Clear
36°F / 2°C 28°F / -2°C 75% 29.8 in
(1009 mb)
Calm - 10SM
17:55
Clear
36°F / 2°C 28°F / -2°C 75% 29.8 in
(1009 mb)
SW 3.5 mph
(SW 6 kph)
0.03 in
(0.76 mm)
10SM
17:35
Partly Cloudy
36°F / 2°C 28°F / -2°C 75% 29.8 in
(1009 mb)
SW 3.5 mph
(SW 6 kph)
0.02 in
(0.51 mm)
10SM
17:15
Partly Cloudy
36°F / 2°C 28°F / -2°C 75% 29.8 in
(1009 mb)
Calm 0.01 in
(0.25 mm)
10SM
16:55
Mostly Cloudy
36°F / 2°C 28°F / -2°C 75% 29.8 in
(1009 mb)
Calm 0.06 in
(1.52 mm)
10SM
16:35
Overcast
36°F / 2°C 27°F / -3°C 70% 29.8 in
(1009 mb)
Calm 0.05 in
(1.27 mm)
10SM
16:15
Overcast
36°F / 2°C 27°F / -3°C 70% 29.8 in
(1009 mb)
Calm 0.03 in
(0.76 mm)
10SM
15:55
Overcast
34°F / 1°C 27°F / -3°C 75% 29.8 in
(1009 mb)
NNW 4.6 mph
(NNW 7 kph)
0.06 in
(1.52 mm)
10SM
15:35
Overcast
34°F / 1°C 27°F / -3°C 75% 29.8 in
(1009 mb)
NE 5.8 mph
(NE 9 kph)
0.05 in
(1.27 mm)
10SM
15:15
Overcast
34°F / 1°C 27°F / -3°C 75% 29.8 in
(1009 mb)
N 5.8 mph
(N 9 kph)
0.03 in
(0.76 mm)
10SM
14:55
Overcast
36°F / 2°C 27°F / -3°C 70% 29.8 in
(1009 mb)
Calm 0.19 in
(4.83 mm)
10SM
14:35
Overcast
34°F / 1°C 27°F / -3°C 75% 29.8 in
(1009 mb)
Calm 0.12 in
(3.05 mm)
10SM
14:15
Overcast
34°F / 1°C 28°F / -2°C 81% 29.8 in
(1009 mb)
Calm 0.06 in
(1.52 mm)
9SM
13:55
Overcast
32°F / 0°C 28°F / -2°C 87% 29.8 in
(1009 mb)
Calm 0.05 in
(1.27 mm)
5SM
13:35
Overcast
32°F / 0°C 27°F / -3°C 80% 29.83 in
(1010 mb)
Calm - 5SM
13:15
Overcast
32°F / 0°C 27°F / -3°C 80% 29.83 in
(1010 mb)
N 3.5 mph
(N 6 kph)
- 2 1/2SM
12:55
Overcast
30°F / -1°C 27°F / -3°C 86% 29.83 in
(1010 mb)
NNE 4.6 mph
(NNE 7 kph)
- 3/4SM
12:35
Overcast
30°F / -1°C 27°F / -3°C 86% 29.83 in
(1010 mb)
N 3.5 mph
(N 6 kph)
- 1/4SM
12:15
Overcast
30°F / -1°C 27°F / -3°C 86% 29.83 in
(1010 mb)
Calm - 1/4SM
11:55
Overcast
30°F / -1°C 27°F / -3°C 86% 29.83 in
(1010 mb)
NE 3.5 mph
(NE 6 kph)
- 1/4SM
11:35
Overcast
30°F / -1°C 27°F / -3°C 86% 29.86 in
(1011 mb)
NNW 6.9 mph
(NNW 11 kph)
- M1/4SM
11:15
Overcast
30°F / -1°C 27°F / -3°C 86% 29.86 in
(1011 mb)
NNE 5.8 mph
(NNE 9 kph)
- 1/2SM
10:55
Overcast
30°F / -1°C 27°F / -3°C 86% 29.83 in
(1010 mb)
N 4.6 mph
(N 7 kph)
- 1/2SM
10:35
Overcast
30°F / -1°C 27°F / -3°C 86% 29.86 in
(1011 mb)
NE 4.6 mph
(NE 7 kph)
- 1/2SM
10:15
Overcast
30°F / -1°C 25°F / -4°C 80% 29.89 in
(1012 mb)
N 8.1 mph
(N 13 kph)
- 1/2SM
09:55
Overcast
30°F / -1°C 27°F / -3°C 86% 29.89 in
(1012 mb)
Calm - 1SM
09:35
Overcast
30°F / -1°C 27°F / -3°C 86% 29.89 in
(1012 mb)
Calm - 3/4SM
09:15
Overcast
30°F / -1°C 27°F / -3°C 86% 29.89 in
(1012 mb)
Calm - 1/2SM
08:55
Overcast
30°F / -1°C 25°F / -4°C 80% 29.89 in
(1012 mb)
Calm - 1SM
08:35
Overcast
30°F / -1°C 27°F / -3°C 86% 29.89 in
(1012 mb)
E 3.5 mph
(E 6 kph)
- 3/4SM
08:15
Overcast
32°F / 0°C 21°F / -6°C 64% 29.92 in
(1013 mb)
NE 6.9 mph
(NE 11 kph)
- 1 3/4SM
07:55
Overcast
34°F / 1°C 19°F / -7°C 56% 29.92 in
(1013 mb)
Calm - 3SM
07:35
Overcast
36°F / 2°C 18°F / -8°C 48% 29.92 in
(1013 mb)
NE 6.9 mph
(NE 11 kph)
- 10SM
07:15
Overcast
37°F / 3°C 14°F / -10°C 38% 29.92 in
(1013 mb)
NE 5.8 mph
(NE 9 kph)
- 9SM
06:55
Overcast
37°F / 3°C 12°F / -11°C 35% 29.92 in
(1013 mb)
NE 5.8 mph
(NE 9 kph)
- 10SM
06:35
Overcast
37°F / 3°C 12°F / -11°C 35% 29.92 in
(1013 mb)
NE 4.6 mph
(NE 7 kph)
- 10SM
06:15
Overcast
37°F / 3°C 12°F / -11°C 35% 29.92 in
(1013 mb)
NE 5.8 mph
(NE 9 kph)
- 10SM
05:55
Overcast
37°F / 3°C 12°F / -11°C 35% 29.92 in
(1013 mb)
NE 6.9 mph
(NE 11 kph)
- 10SM
05:35
Overcast
37°F / 3°C 12°F / -11°C 35% 29.92 in
(1013 mb)
NE 8.1 mph
(NE 13 kph)
- 10SM
05:15
Overcast
37°F / 3°C 12°F / -11°C 35% 29.92 in
(1013 mb)
ENE 5.8 mph
(ENE 9 kph)
- 10SM
04:55
Overcast
37°F / 3°C 12°F / -11°C 35% 29.92 in
(1013 mb)
NE 5.8 mph
(NE 9 kph)
- 10SM
04:35
Overcast
37°F / 3°C 12°F / -11°C 35% 29.95 in
(1014 mb)
NE 6.9 mph
(NE 11 kph)
- 10SM
04:15
Overcast
39°F / 4°C 12°F / -11°C 33% 29.95 in
(1014 mb)
NE 4.6 mph
(NE 7 kph)
- 10SM
03:55
Overcast
39°F / 4°C 12°F / -11°C 33% 29.95 in
(1014 mb)
E 3.5 mph
(E 6 kph)
- 10SM
03:35
Overcast
39°F / 4°C 12°F / -11°C 33% 29.95 in
(1014 mb)
ENE 4.6 mph
(ENE 7 kph)
- 10SM
03:15
Overcast
39°F / 4°C 10°F / -12°C 30% 29.95 in
(1014 mb)
ENE 6.9 mph
(ENE 11 kph)
- 10SM
02:55
Overcast
39°F / 4°C 12°F / -11°C 33% 29.98 in
(1015 mb)
E 3.5 mph
(E 6 kph)
- 10SM
02:35
Overcast
39°F / 4°C 14°F / -10°C 36% 29.98 in
(1015 mb)
Calm - 10SM
02:15
Overcast
39°F / 4°C 12°F / -11°C 33% 29.95 in
(1014 mb)
SE 3.5 mph
(SE 6 kph)
- 10SM
01:55
Overcast
39°F / 4°C 12°F / -11°C 33% 29.95 in
(1014 mb)
Calm - 10SM
01:35
Overcast
39°F / 4°C 14°F / -10°C 36% 29.95 in
(1014 mb)
SE 3.5 mph
(SE 6 kph)
- 10SM
01:15
Overcast
39°F / 4°C 12°F / -11°C 33% 29.95 in
(1014 mb)
Calm - 10SM
00:55
Overcast
41°F / 5°C 12°F / -11°C 31% 29.95 in
(1014 mb)
N 5.8 mph
(N 9 kph)
- 10SM
00:35
Overcast
41°F / 5°C 12°F / -11°C 31% 29.95 in
(1014 mb)
NE 3.5 mph
(NE 6 kph)
- 10SM
00:15
Overcast
41°F / 5°C 16°F / -9°C 36% 29.95 in
(1014 mb)
Calm - 10SM
Time Weather Temperature Dewpoint Humidity Pressure Winds Precip Visibility


Weather for websites

WeatherForYou.com, LLC is not responsible for any damages or problems caused by this service. Current weather conditions are obtained from the closest station including government and personal stations which may have varying degrees of accuracy. Weather forecasts are derived from the NOAA NDFD. Like all things, this site belongs to Jesus Christ... He just trusts us to maintain it. If you have any questions or comments email webmaster@weatherforyou.com

Copyright © 2016, WeatherForYou.com LLC. All rights reserved.